2026-023J

Last updated on Sun Mar 08 2026 00:02:12 GMT+0000 (Coordinated Universal Time)

1 67682U 26023J 26066.41642484 .00018953 00000+0 79674-3 0 9996 2 67682 96.6350 142.1405 0023901 122.1388 238.2175 15.23178803 4490
UTC large
Height (km)
Speed (km/s)
/
Latitude / Longitude
Inclination (degrees)
Orbital Period (minutes)
Azimuth
Elevation
Range (km)
Doppler Factor

Next 0 passes for location: London (51.5072 / 0.1276)

Sorry there are no passes over London.